Siloam Springs, AR

10:04 AM CST on February 21, 2018 (GMT -0600)
Smith

Weather History for KSLG - February, 2014

Change the Weather History Date:

Tuesday, February 18, 2014

  Actual Average Record
Temperature  
Mean Temperature 50 °F -  
Max Temperature 69 °F 49 °F 73 °F (2016)
Min Temperature 30 °F 32 °F 12 °F (2006)
Degree Days  
Heating Degree Days 16    
Moisture  
Dew Point 28 °F    
Average Humidity 44    
Maximum Humidity 64    
Minimum Humidity 24    
Precipitation  
Precipitation 0.00 in - - ()
Sea Level Pressure  
Sea Level Pressure 29.96 in    
Wind  
Wind Speed 8 mph (ESE)    
Max Wind Speed 24 mph    
Max Gust Speed 31 mph    
Visibility 10 miles    
Events      
Averages and records for this station are not official NWS values.
T = Trace of Precipitation, MM = Missing Value Source: NWS Daily Summary

Daily Weather History Graph

Daily Weather History Graph

Search for Another Location

Airport or City:

Trip Planner

Search our weather history database for the weather conditions in past years. The results will help you decide how hot, cold, wet, or windy it might be!

Date:

Astronomy

Feb. 18, 2014 Rise Set
Actual Time 7:02 AM CST 6:02 PM CST
Civil Twilight 6:35 AM CST 6:28 PM CST
Nautical Twilight 6:05 AM CST 6:58 PM CST
Astronomical Twilight 5:36 AM CST 7:28 PM CST
Moon 9:47 PM CST (2/18) 8:42 AM CST (2/18)
Length of Visible Light 11h 52m
Length of Day
11h 00m
Waning Gibbous, 87% of the Moon is Illuminated
Feb 18
Waning Gibbous
Feb 22
Last Quarter
Mar 1
New
Mar 8
First Quarter
Mar 16
Full

Hourly Weather History & Observations

Time (CST) Temp. Windchill Dew Point Humidity Pressure Visibility Wind Dir Wind Speed Gust Speed Precip Events Conditions
12:15 AM 39.2 °F 35.0 °F 23.0 °F 52% 30.12 in 10.0 mi East 5.8 mph - N/A   Clear
12:35 AM 35.6 °F 30.7 °F 21.2 °F 56% 30.11 in 10.0 mi East 5.8 mph - N/A   Clear
12:55 AM 35.6 °F 31.7 °F 21.2 °F 56% 30.11 in 10.0 mi East 4.6 mph - N/A   Clear
1:15 AM 37.4 °F 33.8 °F 21.2 °F 52% 30.11 in 10.0 mi East 4.6 mph - N/A   Clear
1:35 AM 30.2 °F 23.4 °F 19.4 °F 64% 30.10 in 10.0 mi East 6.9 mph - N/A   Clear
1:55 AM 33.8 °F 29.6 °F 21.2 °F 60% 30.10 in 10.0 mi ENE 4.6 mph - N/A   Clear
2:15 AM 35.6 °F 31.7 °F 21.2 °F 56% 30.10 in 10.0 mi East 4.6 mph - N/A   Clear
2:35 AM 37.4 °F 33.8 °F 21.2 °F 52% 30.08 in 10.0 mi ENE 4.6 mph - N/A   Clear
2:55 AM 33.8 °F 30.8 °F 21.2 °F 60% 30.08 in 10.0 mi ENE 3.5 mph - N/A   Clear
3:15 AM 33.8 °F 30.8 °F 21.2 °F 60% 30.07 in 10.0 mi NE 3.5 mph - N/A   Clear
3:35 AM 33.8 °F 29.6 °F 21.2 °F 60% 30.05 in 10.0 mi NNE 4.6 mph - N/A   Clear
3:55 AM 32.0 °F 27.5 °F 21.2 °F 64% 30.05 in 10.0 mi NE 4.6 mph - N/A   Clear
4:15 AM 33.8 °F 29.6 °F 21.2 °F 60% 30.05 in 10.0 mi ENE 4.6 mph - N/A   Clear
4:35 AM 33.8 °F 27.7 °F 21.2 °F 60% 30.04 in 10.0 mi NNE 6.9 mph - N/A   Clear
4:55 AM 32.0 °F 25.6 °F 21.2 °F 64% 30.03 in 10.0 mi North 6.9 mph - N/A   Clear
5:15 AM 33.8 °F 27.7 °F 21.2 °F 60% 30.03 in 10.0 mi North 6.9 mph - N/A   Clear
5:35 AM 33.8 °F 27.7 °F 21.2 °F 60% 30.03 in 10.0 mi NNE 6.9 mph - N/A   Clear
5:55 AM 33.8 °F 27.7 °F 21.2 °F 60% 30.03 in 10.0 mi NE 6.9 mph - N/A   Clear
6:15 AM 30.2 °F 22.6 °F 19.4 °F 64% 30.03 in 10.0 mi ENE 8.1 mph - N/A   Clear
6:35 AM 32.0 °F 24.8 °F 19.4 °F 60% 30.02 in 10.0 mi East 8.1 mph - N/A   Clear
6:55 AM 32.0 °F 24.8 °F 19.4 °F 60% 30.02 in 10.0 mi East 8.1 mph - N/A   Clear
7:15 AM 30.2 °F 22.6 °F 19.4 °F 64% 30.02 in 10.0 mi East 8.1 mph - N/A   Clear
7:35 AM 32.0 °F 24.8 °F 21.2 °F 64% 30.02 in 10.0 mi East 8.1 mph - N/A   Clear
7:55 AM 39.2 °F 32.0 °F 24.8 °F 56% 30.03 in 10.0 mi ESE 11.5 mph - N/A   Clear
8:15 AM 46.4 °F 42.4 °F 26.6 °F 46% 30.02 in 10.0 mi East 8.1 mph - N/A   Clear
8:35 AM 46.4 °F 41.9 °F 26.6 °F 46% 30.02 in 10.0 mi East 9.2 mph - N/A   Clear
8:55 AM 48.2 °F - 26.6 °F 43% 30.02 in 10.0 mi ESE 8.1 mph - N/A   Clear
9:15 AM 50.0 °F - 28.4 °F 43% 30.02 in 10.0 mi ESE 6.9 mph - N/A   Clear
9:35 AM 53.6 °F - 28.4 °F 38% 30.02 in 10.0 mi ESE 11.5 mph - N/A   Clear
9:55 AM 57.2 °F - 28.4 °F 33% 30.01 in 10.0 mi ESE 13.8 mph 18.4 mph N/A   Clear
10:15 AM 57.2 °F - 28.4 °F 33% 30.00 in 10.0 mi ESE 15.0 mph 19.6 mph N/A   Clear
10:35 AM 57.2 °F - 28.4 °F 33% 29.99 in 10.0 mi East 13.8 mph 19.6 mph N/A   Clear
10:55 AM 57.2 °F - 26.6 °F 31% 29.99 in 10.0 mi ESE 18.4 mph 24.2 mph N/A   Clear
11:15 AM 60.8 °F - 28.4 °F 29% 29.98 in 10.0 mi ESE 13.8 mph 19.6 mph N/A   Clear
11:35 AM 62.6 °F - 28.4 °F 27% 29.97 in 10.0 mi ESE 19.6 mph 27.6 mph N/A   Clear
11:55 AM 62.6 °F - 28.4 °F 27% 29.97 in 10.0 mi ESE 18.4 mph 26.5 mph N/A   Clear
12:15 PM 62.6 °F - 28.4 °F 27% 29.95 in 10.0 mi ESE 21.9 mph 25.3 mph N/A   Clear
12:35 PM 66.2 °F - 30.2 °F 26% 29.93 in 10.0 mi SE 18.4 mph 25.3 mph N/A   Clear
12:55 PM 64.4 °F - 28.4 °F 26% 29.92 in 10.0 mi SE 24.2 mph 27.6 mph N/A   Clear
1:15 PM 64.4 °F - 28.4 °F 26% 29.91 in 10.0 mi SE 20.7 mph 31.1 mph N/A   Clear
1:35 PM 64.4 °F - 28.4 °F 26% 29.90 in 10.0 mi ESE 20.7 mph 25.3 mph N/A   Clear
1:55 PM 64.4 °F - 28.4 °F 26% 29.88 in 10.0 mi ESE 20.7 mph 27.6 mph N/A   Clear
2:15 PM 66.2 °F - 30.2 °F 26% 29.85 in 10.0 mi ESE 23.0 mph 28.8 mph N/A   Clear
2:35 PM 68.0 °F - 30.2 °F 24% 29.83 in 10.0 mi ESE 20.7 mph 29.9 mph N/A   Clear
2:55 PM 68.0 °F - 30.2 °F 24% 29.82 in 10.0 mi ESE 20.7 mph 31.1 mph N/A   Clear
3:15 PM 68.0 °F - 32.0 °F 26% 29.83 in 10.0 mi SE 18.4 mph 28.8 mph N/A   Clear
3:35 PM 68.0 °F - 32.0 °F 26% 29.83 in 10.0 mi ESE 17.3 mph 25.3 mph N/A   Clear
3:55 PM 69.8 °F - 33.8 °F 27% 29.82 in 10.0 mi ESE 17.3 mph - N/A   Clear
4:15 PM 69.8 °F - 33.8 °F 27% 29.81 in 10.0 mi SE 17.3 mph - N/A   Clear
4:35 PM 69.8 °F - 33.8 °F 27% 29.81 in 10.0 mi SE 16.1 mph - N/A   Clear
4:55 PM 68.0 °F - 33.8 °F 28% 29.83 in 10.0 mi SSE 15.0 mph 20.7 mph N/A   Clear
5:15 PM 68.0 °F - 33.8 °F 28% 29.83 in 10.0 mi SSE 15.0 mph 19.6 mph N/A   Clear
5:35 PM 66.2 °F - 33.8 °F 30% 29.83 in 10.0 mi SSE 13.8 mph - N/A   Clear
5:55 PM 64.4 °F - 33.8 °F 32% 29.85 in 10.0 mi South 9.2 mph - N/A   Clear
6:15 PM 60.8 °F - 33.8 °F 36% 29.86 in 10.0 mi South 8.1 mph - N/A   Clear
6:35 PM 60.8 °F - 33.8 °F 36% 29.86 in 10.0 mi SSE 5.8 mph - N/A   Clear
6:55 PM 60.8 °F - 33.8 °F 36% 29.86 in 10.0 mi SSE 3.5 mph - N/A   Clear
7:15 PM 59.0 °F - 33.8 °F 39% 29.87 in 10.0 mi Calm Calm - N/A   Clear
7:35 PM 57.2 °F - 33.8 °F 41% 29.88 in 10.0 mi South 3.5 mph - N/A   Clear
7:55 PM 57.2 °F - 33.8 °F 41% 29.89 in 10.0 mi Calm Calm - N/A   Clear
8:15 PM 57.2 °F - 33.8 °F 41% 29.89 in 10.0 mi Calm Calm - N/A   Clear
8:35 PM 57.2 °F - 33.8 °F 41% 29.90 in 10.0 mi Calm Calm - N/A   Clear
8:55 PM 57.2 °F - 35.6 °F 44% 29.90 in 10.0 mi East 3.5 mph - N/A   Clear
9:15 PM 53.6 °F - 33.8 °F 47% 29.91 in 10.0 mi Calm Calm - N/A   Clear
9:35 PM 53.6 °F - 33.8 °F 47% 29.92 in 10.0 mi Calm Calm - N/A   Clear
9:55 PM 51.8 °F - 33.8 °F 50% 29.92 in 10.0 mi ESE 4.6 mph - N/A   Clear
10:15 PM 53.6 °F - 33.8 °F 47% 29.93 in 10.0 mi ESE 3.5 mph - N/A   Clear
10:35 PM 53.6 °F - 35.6 °F 51% 29.93 in 10.0 mi Calm Calm - N/A   Clear
10:55 PM 51.8 °F - 35.6 °F 54% 29.94 in 10.0 mi Calm Calm - N/A   Clear
11:15 PM 50.0 °F - 35.6 °F 58% 29.94 in 10.0 mi Calm Calm - N/A   Clear
11:35 PM 51.8 °F - 35.6 °F 54% 29.94 in 10.0 mi Calm Calm - N/A   Clear
11:55 PM 51.8 °F - 35.6 °F 54% 29.94 in 10.0 mi Calm Calm - N/A   Clear